EZY56UT LEMI-EGKK

Flight info

Callsign EZY56UT
Flight time 2h 6m
Altitude 38000
Route ALT N851 MITOS DCT COMPI DCT DIKUT DCT ASDIR DCT OSLAP DCT USKAR DCT MOPAS DCT GIROM DCT GONUP DCT MANAK DCT EPAPU UM184 EKRAS UT507 REVTU UP88 VASUX
Aircraft A320/M-SDE2E3FGHIJ1RWXYZ/LB1

Departure

Time 2026-05-04 20:03
Airport Region of Murcia International Airport (LEMI)

Arrival

Time 2026-05-04 22:09
Airport London Gatwick Airport (EGKK)
Time Latitude Longitude Altitude Speed Heading
2026-05-04 19:32 37.80411 -1.13056 647 ft 0 kts 315°
2026-05-04 19:54 37.80409 -1.13054 648 ft 2 kts 315°
2026-05-04 19:55 37.80397 -1.13039 647 ft 2 kts 315°
2026-05-04 19:55 37.80385 -1.13023 648 ft 2 kts 315°
2026-05-04 19:55 37.80372 -1.13008 648 ft 3 kts 308°
2026-05-04 19:55 37.80364 -1.12988 649 ft 3 kts 272°
2026-05-04 19:56 37.80366 -1.12966 650 ft 3 kts 236°
2026-05-04 19:56 37.80370 -1.12959 651 ft 0 kts 222°
2026-05-04 19:58 37.80369 -1.12961 651 ft 2 kts 222°
2026-05-04 19:58 37.80329 -1.13014 647 ft 13 kts 226°
2026-05-04 19:58 37.80260 -1.13105 647 ft 15 kts 225°
2026-05-04 19:58 37.80172 -1.13146 647 ft 15 kts 148°
2026-05-04 19:59 37.80090 -1.13085 648 ft 13 kts 190°
2026-05-04 19:59 37.80019 -1.13160 648 ft 18 kts 226°
2026-05-04 19:59 37.79926 -1.13277 651 ft 18 kts 225°
2026-05-04 19:59 37.79839 -1.13394 651 ft 19 kts 226°
2026-05-04 20:00 37.79741 -1.13518 650 ft 21 kts 224°
2026-05-04 20:00 37.79626 -1.13665 648 ft 26 kts 225°
2026-05-04 20:00 37.79512 -1.13782 649 ft 17 kts 180°
2026-05-04 20:00 37.79420 -1.13688 645 ft 18 kts 131°
2026-05-04 20:01 37.79436 -1.13601 644 ft 0 kts 46°
2026-05-04 20:02 37.79471 -1.13555 644 ft 31 kts 46°
2026-05-04 20:02 37.79799 -1.13133 649 ft 100 kts 45°
2026-05-04 20:02 37.80426 -1.12327 648 ft 154 kts 45°
2026-05-04 20:03 37.81256 -1.11255 920 ft 174 kts 45°
2026-05-04 20:03 37.82083 -1.10189 1656 ft 169 kts 44°
2026-05-04 20:03 37.82955 -1.09146 2160 ft 180 kts 41°
2026-05-04 20:03 37.83927 -1.08006 2426 ft 201 kts 41°
2026-05-04 20:04 37.85003 -1.06724 2661 ft 224 kts 46°
2026-05-04 20:04 37.86035 -1.05108 2925 ft 249 kts 52°
2026-05-04 20:04 37.87107 -1.03279 3393 ft 266 kts 53°
2026-05-04 20:04 37.88204 -1.01355 4171 ft 272 kts 53°
2026-05-04 20:05 37.89311 -0.99401 4987 ft 275 kts 52°
2026-05-04 20:05 37.90437 -0.97420 5808 ft 279 kts 52°
2026-05-04 20:05 37.91586 -0.95414 6587 ft 283 kts 52°
2026-05-04 20:05 37.92755 -0.93376 7293 ft 289 kts 52°
2026-05-04 20:06 37.93947 -0.91299 8019 ft 294 kts 52°
2026-05-04 20:06 37.95163 -0.89181 8739 ft 300 kts 52°
2026-05-04 20:06 37.96402 -0.87024 9460 ft 306 kts 52°
2026-05-04 20:06 37.97664 -0.84826 10109 ft 312 kts 52°
2026-05-04 20:07 37.98990 -0.82518 10351 ft 335 kts 52°
2026-05-04 20:07 38.00409 -0.80051 10614 ft 355 kts 52°
2026-05-04 20:07 38.01881 -0.77493 11162 ft 363 kts 52°
2026-05-04 20:07 38.03377 -0.74882 11791 ft 369 kts 52°
2026-05-04 20:08 38.04895 -0.72227 12426 ft 374 kts 52°
2026-05-04 20:08 38.06429 -0.69534 13041 ft 380 kts 52°
2026-05-04 20:08 38.07989 -0.66795 13653 ft 385 kts 52°
2026-05-04 20:08 38.09566 -0.64024 14215 ft 389 kts 52°
2026-05-04 20:09 38.11162 -0.61220 14756 ft 394 kts 52°
2026-05-04 20:09 38.12773 -0.58387 15316 ft 398 kts 52°
2026-05-04 20:09 38.14383 -0.55560 15862 ft 402 kts 52°
2026-05-04 20:09 38.16031 -0.52667 16423 ft 406 kts 52°
2026-05-04 20:10 38.17692 -0.49747 16970 ft 410 kts 52°
2026-05-04 20:10 38.19370 -0.46794 17519 ft 414 kts 52°
2026-05-04 20:10 38.21063 -0.43812 18054 ft 418 kts 52°
2026-05-04 20:10 38.22771 -0.40799 18526 ft 422 kts 52°
2026-05-04 20:11 38.24492 -0.37757 18990 ft 426 kts 52°
2026-05-04 20:11 38.26225 -0.34688 19458 ft 429 kts 52°
2026-05-04 20:11 38.27972 -0.31592 19921 ft 432 kts 52°
2026-05-04 20:11 38.29732 -0.28468 20373 ft 436 kts 52°
2026-05-04 20:12 38.31506 -0.25319 20820 ft 439 kts 52°
2026-05-04 20:12 38.33292 -0.22146 21259 ft 442 kts 52°
2026-05-04 20:12 38.35092 -0.18948 21693 ft 446 kts 53°
2026-05-04 20:12 38.36903 -0.15727 22126 ft 449 kts 52°
2026-05-04 20:13 38.38729 -0.12477 22557 ft 452 kts 52°
2026-05-04 20:13 38.40630 -0.09270 22965 ft 454 kts 46°
2026-05-04 20:13 38.42897 -0.06475 23369 ft 453 kts 35°
2026-05-04 20:13 38.45495 -0.04228 23736 ft 450 kts 24°
2026-05-04 20:14 38.48333 -0.02600 24077 ft 446 kts 13°
2026-05-04 20:14 38.51315 -0.01599 24425 ft 442 kts
2026-05-04 20:14 38.54327 -0.00764 24791 ft 444 kts
2026-05-04 20:14 38.57352 0.00084 25131 ft 446 kts
2026-05-04 20:15 38.60392 0.00943 25477 ft 449 kts
2026-05-04 20:15 38.63446 0.01812 25828 ft 451 kts
2026-05-04 20:15 38.66511 0.02689 26182 ft 452 kts
2026-05-04 20:15 38.69593 0.03571 26515 ft 455 kts
2026-05-04 20:16 38.72687 0.04451 26842 ft 457 kts
2026-05-04 20:16 38.75758 0.05319 27170 ft 459 kts
2026-05-04 20:16 38.78885 0.06202 27522 ft 461 kts
2026-05-04 20:16 38.82019 0.07093 27859 ft 463 kts
2026-05-04 20:17 38.85212 0.08003 28200 ft 465 kts
2026-05-04 20:17 38.88332 0.08893 28519 ft 466 kts
2026-05-04 20:17 38.91505 0.09799 28849 ft 468 kts
2026-05-04 20:17 38.94689 0.10709 29155 ft 470 kts
2026-05-04 20:18 38.97887 0.11626 29458 ft 472 kts
2026-05-04 20:18 39.01096 0.12545 29752 ft 474 kts
2026-05-04 20:18 39.04319 0.13469 30025 ft 475 kts
2026-05-04 20:18 39.07554 0.14396 30245 ft 477 kts
2026-05-04 20:19 39.10803 0.15327 30472 ft 479 kts
2026-05-04 20:19 39.14063 0.16260 30699 ft 481 kts
2026-05-04 20:19 39.17325 0.17197 31011 ft 480 kts
2026-05-04 20:19 39.20584 0.18134 31326 ft 480 kts
2026-05-04 20:20 39.23841 0.19071 31625 ft 479 kts
2026-05-04 20:20 39.27095 0.20011 31927 ft 479 kts
2026-05-04 20:20 39.30347 0.20952 32219 ft 479 kts
2026-05-04 20:20 39.33600 0.21892 32528 ft 479 kts
2026-05-04 20:21 39.36848 0.22833 32831 ft 479 kts
2026-05-04 20:21 39.40095 0.23775 33134 ft 478 kts
2026-05-04 20:21 39.46585 0.25660 33728 ft 478 kts
2026-05-04 20:22 39.49826 0.26598 34018 ft 477 kts
2026-05-04 20:22 39.53064 0.27535 34279 ft 477 kts
2026-05-04 20:22 39.56300 0.28474 34536 ft 476 kts
2026-05-04 20:22 39.59529 0.29412 34780 ft 475 kts
2026-05-04 20:23 39.62755 0.30352 35021 ft 475 kts
2026-05-04 20:23 39.65973 0.31294 35256 ft 474 kts
2026-05-04 20:23 39.69189 0.32235 35489 ft 473 kts
2026-05-04 20:23 39.72398 0.33172 35714 ft 473 kts
2026-05-04 20:24 39.75607 0.34111 35898 ft 473 kts
2026-05-04 20:24 39.77728 0.34734 35934 ft 471 kts
2026-05-04 20:24 39.84104 0.36607 35944 ft 469 kts
2026-05-04 20:25 39.90467 0.38475 35946 ft 468 kts
2026-05-04 20:25 39.96825 0.40332 35946 ft 468 kts
2026-05-04 20:26 40.03183 0.42202 35955 ft 468 kts
2026-05-04 20:26 40.09542 0.44084 35962 ft 468 kts
2026-05-04 20:27 40.15899 0.45967 35965 ft 468 kts
2026-05-04 20:27 40.22256 0.47855 35962 ft 469 kts
2026-05-04 20:28 40.28618 0.49743 35958 ft 469 kts
2026-05-04 20:28 40.34975 0.51634 35959 ft 469 kts
2026-05-04 20:29 40.41337 0.53534 35959 ft 469 kts
2026-05-04 20:29 40.47705 0.55435 35957 ft 469 kts
2026-05-04 20:30 40.54073 0.57337 35959 ft 469 kts
2026-05-04 20:30 40.60441 0.59251 35957 ft 469 kts
2026-05-04 20:31 40.66807 0.61160 35959 ft 469 kts
2026-05-04 20:31 40.73135 0.63058 35952 ft 470 kts
2026-05-04 20:32 40.79504 0.64985 35958 ft 470 kts
2026-05-04 20:32 40.85877 0.66919 35959 ft 470 kts
2026-05-04 20:33 40.92251 0.68851 35963 ft 470 kts
2026-05-04 20:33 40.98636 0.70778 35961 ft 471 kts
2026-05-04 20:34 41.05026 0.72711 35967 ft 472 kts
2026-05-04 20:34 41.11422 0.74667 35969 ft 472 kts
2026-05-04 20:35 41.17813 0.76627 35974 ft 472 kts
2026-05-04 20:36 41.36990 0.82506 35969 ft 471 kts
2026-05-04 20:37 41.43381 0.84465 35962 ft 471 kts
2026-05-04 20:37 41.49772 0.86433 35961 ft 471 kts
2026-05-04 20:38 41.56165 0.88411 35973 ft 472 kts
2026-05-04 20:38 41.62562 0.90396 35964 ft 472 kts
2026-05-04 20:39 41.68954 0.92386 35964 ft 472 kts
2026-05-04 20:39 41.75345 0.94370 35967 ft 471 kts
2026-05-04 20:40 41.81734 0.96355 35974 ft 471 kts
2026-05-04 20:40 41.88121 0.98343 35981 ft 471 kts
2026-05-04 20:41 41.94506 1.00335 36004 ft 471 kts
2026-05-04 20:41 42.00893 1.02337 36007 ft 471 kts
2026-05-04 20:42 42.07279 1.04349 36004 ft 471 kts
2026-05-04 20:42 42.13684 1.06134 35995 ft 467 kts
2026-05-04 20:43 42.20101 1.05965 35971 ft 460 kts 350°
2026-05-04 20:43 42.26479 1.05276 35963 ft 460 kts 351°
2026-05-04 20:44 42.32869 1.04593 35962 ft 461 kts 351°
2026-05-04 20:44 42.39263 1.03899 35959 ft 461 kts 351°
2026-05-04 20:45 42.45658 1.03204 35968 ft 461 kts 351°
2026-05-04 20:45 42.52057 1.02506 35973 ft 461 kts 351°
2026-05-04 20:46 42.58455 1.01807 35976 ft 461 kts 351°
2026-05-04 20:46 42.64814 1.01116 35985 ft 462 kts 351°
2026-05-04 20:47 42.71222 1.00424 35990 ft 462 kts 351°
2026-05-04 20:47 42.77614 0.99611 35998 ft 459 kts 345°
2026-05-04 20:48 42.83776 0.97563 36002 ft 455 kts 341°
2026-05-04 20:48 42.89926 0.95441 36011 ft 457 kts 341°
2026-05-04 20:49 42.96088 0.93324 36019 ft 457 kts 341°
2026-05-04 20:49 43.02258 0.91191 36024 ft 457 kts 341°
2026-05-04 20:50 43.08430 0.89049 36024 ft 458 kts 341°
2026-05-04 20:50 43.14605 0.86900 36025 ft 458 kts 341°
2026-05-04 20:51 43.20783 0.84750 36022 ft 458 kts 341°
2026-05-04 20:51 43.26965 0.82593 36020 ft 459 kts 341°
2026-05-04 20:52 43.33152 0.80433 36015 ft 459 kts 341°
2026-05-04 20:52 43.39338 0.78276 36007 ft 459 kts 341°
2026-05-04 20:53 43.45520 0.76065 36001 ft 457 kts 338°
2026-05-04 20:53 43.51332 0.72807 35997 ft 454 kts 332°
2026-05-04 20:54 43.57141 0.69380 35997 ft 455 kts 332°
2026-05-04 20:54 43.62965 0.65950 35996 ft 455 kts 332°
2026-05-04 20:55 43.68796 0.62513 35995 ft 456 kts 332°
2026-05-04 20:55 43.74631 0.59066 35997 ft 456 kts 332°
2026-05-04 20:56 43.80467 0.55603 35998 ft 457 kts 332°
2026-05-04 20:56 43.86309 0.52124 35999 ft 457 kts 332°
2026-05-04 20:57 43.92150 0.48643 35998 ft 457 kts 332°
2026-05-04 20:57 43.97996 0.45149 36003 ft 458 kts 332°
2026-05-04 20:58 44.03841 0.41654 36008 ft 458 kts 333°
2026-05-04 20:58 44.09693 0.38152 35995 ft 458 kts 333°
2026-05-04 20:59 44.15544 0.34638 35999 ft 458 kts 333°
2026-05-04 20:59 44.21398 0.31111 35997 ft 458 kts 333°
2026-05-04 21:00 44.27242 0.27578 35994 ft 458 kts 333°
2026-05-04 21:00 44.33092 0.24038 35989 ft 458 kts 333°
2026-05-04 21:01 44.38945 0.20483 35988 ft 459 kts 333°
2026-05-04 21:01 44.44805 0.16921 35986 ft 459 kts 333°
2026-05-04 21:02 44.50665 0.13343 35996 ft 460 kts 333°
2026-05-04 21:02 44.53610 0.11547 36133 ft 462 kts 333°
2026-05-04 21:02 44.56516 0.09774 36325 ft 462 kts 333°
2026-05-04 21:03 44.59466 0.07972 36521 ft 462 kts 333°
2026-05-04 21:03 44.62410 0.06171 36731 ft 462 kts 333°
2026-05-04 21:03 44.65355 0.04368 36932 ft 461 kts 333°
2026-05-04 21:03 44.68296 0.02566 37142 ft 461 kts 333°
2026-05-04 21:04 44.71232 0.00765 37336 ft 460 kts 333°
2026-05-04 21:04 44.74166 -0.01036 37533 ft 460 kts 333°
2026-05-04 21:04 44.77098 -0.02840 37731 ft 459 kts 333°
2026-05-04 21:04 44.80025 -0.04643 37921 ft 459 kts 333°
2026-05-04 21:05 44.85881 -0.08249 37989 ft 459 kts 333°
2026-05-04 21:05 44.91734 -0.11868 37985 ft 459 kts 333°
2026-05-04 21:06 44.97588 -0.15498 37986 ft 460 kts 333°
2026-05-04 21:06 45.03445 -0.19140 37982 ft 460 kts 333°
2026-05-04 21:07 45.09304 -0.22784 37986 ft 460 kts 333°
2026-05-04 21:07 45.15158 -0.26444 37989 ft 460 kts 333°
2026-05-04 21:08 45.21017 -0.30113 37993 ft 461 kts 333°
2026-05-04 21:08 45.26885 -0.33784 37993 ft 461 kts 333°
2026-05-04 21:09 45.32751 -0.37463 37993 ft 461 kts 333°
2026-05-04 21:09 45.38576 -0.41136 37994 ft 461 kts 333°
2026-05-04 21:10 45.44443 -0.44843 37982 ft 461 kts 333°
2026-05-04 21:10 45.50305 -0.48559 37986 ft 461 kts 333°
2026-05-04 21:11 45.56171 -0.52281 37986 ft 461 kts 333°
2026-05-04 21:11 45.62043 -0.56002 37991 ft 462 kts 333°
2026-05-04 21:12 45.67910 -0.59744 37990 ft 462 kts 333°
2026-05-04 21:12 45.73778 -0.63493 37984 ft 462 kts 333°
2026-05-04 21:13 45.78656 -0.66613 37985 ft 462 kts 333°
2026-05-04 21:13 45.84521 -0.70377 37985 ft 462 kts 333°
2026-05-04 21:14 45.90387 -0.74147 37984 ft 462 kts 333°
2026-05-04 21:14 45.96258 -0.77930 37987 ft 462 kts 333°
2026-05-04 21:15 46.02129 -0.81723 37993 ft 463 kts 333°
2026-05-04 21:15 46.07999 -0.85523 38002 ft 463 kts 333°
2026-05-04 21:16 46.13875 -0.89324 38011 ft 463 kts 333°
2026-05-04 21:16 46.19749 -0.93133 38008 ft 463 kts 335°
2026-05-04 21:17 46.25975 -0.95627 38011 ft 466 kts 346°
2026-05-04 21:17 46.32321 -0.97555 38008 ft 466 kts 347°
2026-05-04 21:18 46.38723 -0.99137 37997 ft 467 kts 350°
2026-05-04 21:18 46.45163 -1.00393 37993 ft 467 kts 351°
2026-05-04 21:19 46.51560 -1.01661 37993 ft 467 kts 350°
2026-05-04 21:19 46.57987 -1.03047 38002 ft 467 kts 350°
2026-05-04 21:20 46.64408 -1.04477 38005 ft 466 kts 350°
2026-05-04 21:20 46.70823 -1.05888 38007 ft 466 kts 350°
2026-05-04 21:21 46.77241 -1.07283 38008 ft 466 kts 350°
2026-05-04 21:21 46.83657 -1.08683 38006 ft 466 kts 350°
2026-05-04 21:22 46.90067 -1.10084 38000 ft 466 kts 350°
2026-05-04 21:22 46.96473 -1.11484 37989 ft 465 kts 350°
2026-05-04 21:23 47.02875 -1.12902 37991 ft 465 kts 350°
2026-05-04 21:23 47.09266 -1.14324 37989 ft 465 kts 350°
2026-05-04 21:24 47.15661 -1.15738 37992 ft 465 kts 350°
2026-05-04 21:24 47.22053 -1.17162 37998 ft 464 kts 350°
2026-05-04 21:25 47.28437 -1.18587 37990 ft 464 kts 350°
2026-05-04 21:25 47.34817 -1.20001 37983 ft 463 kts 350°
2026-05-04 21:26 47.41147 -1.21414 37975 ft 463 kts 350°
2026-05-04 21:26 47.47516 -1.22838 37976 ft 463 kts 350°
2026-05-04 21:27 47.53878 -1.24267 37976 ft 463 kts 350°
2026-05-04 21:27 47.60247 -1.25712 37972 ft 463 kts 350°
2026-05-04 21:28 47.66612 -1.27154 37970 ft 463 kts 350°
2026-05-04 21:28 47.72974 -1.28593 37970 ft 462 kts 350°
2026-05-04 21:29 47.79332 -1.30042 37975 ft 462 kts 350°
2026-05-04 21:29 47.85686 -1.31493 37976 ft 462 kts 350°
2026-05-04 21:30 47.92042 -1.32936 37988 ft 462 kts 351°
2026-05-04 21:30 47.98397 -1.34376 37993 ft 461 kts 351°
2026-05-04 21:31 48.07911 -1.36561 37996 ft 461 kts 350°
2026-05-04 21:32 48.14247 -1.38025 37996 ft 461 kts 350°
2026-05-04 21:32 48.20580 -1.39482 37996 ft 460 kts 351°
2026-05-04 21:33 48.26911 -1.40949 37997 ft 460 kts 351°
2026-05-04 21:33 48.33232 -1.42421 37996 ft 460 kts 350°
2026-05-04 21:34 48.39552 -1.43889 37993 ft 459 kts 351°
2026-05-04 21:34 48.45869 -1.45357 37996 ft 459 kts 351°
2026-05-04 21:35 48.52177 -1.46828 38002 ft 459 kts 351°
2026-05-04 21:35 48.58484 -1.48308 38004 ft 458 kts 351°
2026-05-04 21:36 48.64782 -1.49781 38006 ft 458 kts 351°
2026-05-04 21:36 48.71074 -1.51265 38005 ft 458 kts 351°
2026-05-04 21:37 48.77324 -1.52755 38007 ft 458 kts 351°
2026-05-04 21:37 48.83613 -1.54252 38010 ft 457 kts 351°
2026-05-04 21:38 48.89901 -1.55739 38010 ft 457 kts 351°
2026-05-04 21:38 48.96189 -1.57232 38010 ft 457 kts 351°
2026-05-04 21:39 49.02475 -1.58718 38014 ft 457 kts 351°
2026-05-04 21:39 49.08763 -1.60220 38017 ft 457 kts 351°
2026-05-04 21:40 49.15044 -1.61724 38023 ft 457 kts 351°
2026-05-04 21:40 49.21325 -1.63237 38025 ft 457 kts 351°
2026-05-04 21:41 49.27607 -1.64748 38024 ft 457 kts 351°
2026-05-04 21:41 49.33885 -1.66266 38024 ft 457 kts 351°
2026-05-04 21:42 49.40159 -1.67791 38034 ft 456 kts 351°
2026-05-04 21:42 49.46434 -1.69305 37837 ft 457 kts 351°
2026-05-04 21:42 49.49569 -1.70062 37571 ft 456 kts 351°
2026-05-04 21:43 49.52707 -1.70829 37303 ft 457 kts 351°
2026-05-04 21:43 49.55851 -1.71551 37039 ft 457 kts 355°
2026-05-04 21:43 49.59029 -1.71659 36763 ft 457 kts
2026-05-04 21:43 49.62178 -1.70997 36209 ft 456 kts 14°
2026-05-04 21:44 49.65189 -1.69566 35698 ft 452 kts 21°
2026-05-04 21:44 49.68141 -1.67901 35178 ft 450 kts 21°
2026-05-04 21:44 49.71086 -1.66260 34653 ft 449 kts 21°
2026-05-04 21:44 49.74026 -1.64635 34129 ft 448 kts 20°
2026-05-04 21:45 49.76963 -1.63020 33549 ft 447 kts 21°
2026-05-04 21:45 49.79884 -1.61413 33043 ft 444 kts 21°
2026-05-04 21:45 49.82785 -1.59813 32528 ft 441 kts 21°
2026-05-04 21:45 49.85669 -1.58213 32019 ft 439 kts 21°
2026-05-04 21:46 49.88534 -1.56614 31522 ft 437 kts 21°
2026-05-04 21:46 49.91384 -1.55021 31022 ft 434 kts 21°
2026-05-04 21:46 49.94221 -1.53436 30526 ft 432 kts 21°
2026-05-04 21:46 49.97007 -1.51880 30049 ft 430 kts 21°
2026-05-04 21:47 49.99815 -1.50311 29539 ft 427 kts 21°
2026-05-04 21:47 50.02611 -1.48812 29069 ft 423 kts 20°
2026-05-04 21:47 50.05398 -1.47419 28628 ft 419 kts 19°
2026-05-04 21:47 50.08169 -1.46095 28184 ft 414 kts 18°
2026-05-04 21:48 50.10916 -1.44807 27741 ft 411 kts 18°
2026-05-04 21:48 50.13639 -1.43526 27294 ft 407 kts 18°
2026-05-04 21:48 50.16332 -1.42243 26851 ft 403 kts 18°
2026-05-04 21:48 50.19000 -1.40955 26403 ft 400 kts 19°
2026-05-04 21:49 50.21643 -1.39662 25954 ft 397 kts 19°
2026-05-04 21:49 50.24267 -1.38368 25490 ft 394 kts 19°
2026-05-04 21:49 50.26874 -1.37076 25031 ft 392 kts 19°
2026-05-04 21:49 50.29468 -1.35787 24554 ft 390 kts 19°
2026-05-04 21:50 50.32051 -1.34505 24073 ft 389 kts 19°
2026-05-04 21:50 50.34625 -1.33229 23589 ft 388 kts 19°
2026-05-04 21:50 50.37194 -1.31955 23057 ft 386 kts 19°
2026-05-04 21:50 50.39741 -1.30698 22578 ft 382 kts 19°
2026-05-04 21:51 50.42268 -1.29446 22120 ft 379 kts 19°
2026-05-04 21:51 50.44774 -1.28198 21660 ft 377 kts 19°
2026-05-04 21:51 50.47263 -1.26960 21201 ft 374 kts 19°
2026-05-04 21:51 50.49682 -1.25531 20750 ft 370 kts 28°
2026-05-04 21:52 50.51839 -1.23403 20311 ft 364 kts 40°
2026-05-04 21:52 50.53776 -1.20863 19870 ft 361 kts 42°
2026-05-04 21:52 50.55697 -1.18331 19439 ft 359 kts 42°
2026-05-04 21:52 50.57605 -1.15819 19079 ft 355 kts 42°
2026-05-04 21:53 50.59497 -1.13333 18679 ft 353 kts 41°
2026-05-04 21:53 50.61376 -1.10862 18239 ft 351 kts 42°
2026-05-04 21:53 50.63234 -1.08411 17772 ft 349 kts 42°
2026-05-04 21:53 50.65080 -1.05970 17397 ft 344 kts 42°
2026-05-04 21:54 50.66733 -1.03265 16975 ft 340 kts 52°
2026-05-04 21:54 50.68223 -1.00379 16485 ft 338 kts 52°
2026-05-04 21:54 50.69665 -0.97609 16082 ft 324 kts 52°
2026-05-04 21:54 50.71070 -0.94913 15718 ft 312 kts 52°
2026-05-04 21:55 50.72422 -0.92317 15360 ft 301 kts 52°
2026-05-04 21:55 50.73727 -0.89806 15019 ft 291 kts 52°
2026-05-04 21:55 50.74989 -0.87371 14686 ft 283 kts 52°
2026-05-04 21:55 50.76236 -0.84952 14347 ft 284 kts 52°
2026-05-04 21:56 50.77487 -0.82525 14013 ft 285 kts 52°
2026-05-04 21:56 50.78745 -0.80090 13659 ft 286 kts 52°
2026-05-04 21:56 50.79995 -0.77638 13300 ft 286 kts 55°
2026-05-04 21:56 50.80975 -0.74925 12961 ft 284 kts 68°
2026-05-04 21:57 50.81548 -0.71898 12591 ft 291 kts 80°
2026-05-04 21:57 50.81906 -0.68741 12220 ft 292 kts 80°
2026-05-04 21:57 50.82270 -0.65580 11849 ft 292 kts 80°
2026-05-04 21:57 50.82637 -0.62426 11478 ft 292 kts 80°
2026-05-04 21:58 50.83003 -0.59277 11105 ft 291 kts 80°
2026-05-04 21:58 50.83369 -0.56128 10740 ft 291 kts 80°
2026-05-04 21:58 50.83733 -0.52982 10364 ft 291 kts 80°
2026-05-04 21:58 50.84097 -0.49843 10051 ft 286 kts 80°
2026-05-04 21:59 50.84443 -0.46855 9925 ft 266 kts 80°
2026-05-04 21:59 50.84767 -0.44050 9643 ft 254 kts 80°
2026-05-04 21:59 50.85082 -0.41321 9175 ft 250 kts 80°
2026-05-04 21:59 50.85389 -0.38625 8687 ft 248 kts 80°
2026-05-04 22:00 50.85691 -0.35950 8337 ft 248 kts 80°
2026-05-04 22:00 50.86014 -0.33267 8006 ft 247 kts 73°
2026-05-04 22:00 50.86866 -0.30966 7704 ft 243 kts 42°
2026-05-04 22:00 50.88329 -0.29715 7390 ft 241 kts 11°
2026-05-04 22:01 50.89957 -0.29851 7087 ft 239 kts 339°
2026-05-04 22:01 50.91318 -0.31328 7028 ft 241 kts 315°
2026-05-04 22:01 50.92464 -0.33292 7016 ft 244 kts 311°
2026-05-04 22:01 50.93574 -0.35309 6717 ft 242 kts 311°
2026-05-04 22:02 50.94671 -0.37334 6393 ft 241 kts 311°
2026-05-04 22:02 50.95759 -0.39357 6060 ft 240 kts 311°
2026-05-04 22:02 50.96862 -0.41262 5922 ft 229 kts 324°
2026-05-04 22:02 50.98214 -0.42397 5779 ft 213 kts 339°
2026-05-04 22:03 50.99551 -0.43217 5646 ft 200 kts 341°
2026-05-04 22:03 51.00420 -0.43729 5489 ft 195 kts 341°
2026-05-04 22:03 51.01689 -0.44475 5272 ft 194 kts 341°
2026-05-04 22:03 51.02950 -0.45219 5076 ft 191 kts 341°
2026-05-04 22:04 51.04191 -0.45957 4765 ft 191 kts 342°
2026-05-04 22:04 51.05411 -0.46690 4431 ft 190 kts 341°
2026-05-04 22:04 51.06670 -0.47262 4104 ft 187 kts
2026-05-04 22:04 51.07853 -0.46623 3831 ft 181 kts 40°
2026-05-04 22:05 51.08734 -0.45198 3520 ft 181 kts 50°
2026-05-04 22:05 51.09535 -0.43669 3208 ft 179 kts 51°
2026-05-04 22:05 51.10325 -0.42130 2900 ft 179 kts 51°
2026-05-04 22:05 51.11104 -0.40611 2671 ft 173 kts 51°
2026-05-04 22:06 51.11824 -0.39204 2535 ft 155 kts 53°
2026-05-04 22:06 51.12215 -0.37701 2398 ft 143 kts 77°
2026-05-04 22:06 51.12425 -0.36192 2202 ft 137 kts 76°
2026-05-04 22:06 51.12632 -0.34721 2029 ft 135 kts 76°
2026-05-04 22:07 51.12836 -0.33264 1848 ft 134 kts 77°
2026-05-04 22:07 51.13038 -0.31819 1665 ft 134 kts 76°
2026-05-04 22:07 51.13240 -0.30373 1475 ft 133 kts 77°
2026-05-04 22:07 51.13441 -0.28933 1289 ft 133 kts 77°
2026-05-04 22:08 51.13642 -0.27487 1103 ft 134 kts 76°
2026-05-04 22:08 51.13843 -0.26042 923 ft 134 kts 77°
2026-05-04 22:08 51.14044 -0.24591 735 ft 134 kts 78°
2026-05-04 22:08 51.14248 -0.23121 544 ft 136 kts 76°
2026-05-04 22:09 51.14450 -0.21665 372 ft 135 kts 77°
2026-05-04 22:09 51.14649 -0.20216 212 ft 131 kts 78°
2026-05-04 22:09 51.14820 -0.18990 202 ft 90 kts 77°
2026-05-04 22:09 51.14918 -0.18278 204 ft 45 kts 77°
2026-05-04 22:10 51.14986 -0.17949 201 ft 20 kts 59°
2026-05-04 22:10 51.15070 -0.17772 203 ft 10 kts 46°
2026-05-04 22:10 51.15106 -0.17755 200 ft 1 kts 355°
2026-05-04 22:10 51.15108 -0.17756 200 ft 0 kts 355°
2026-05-04 22:15 51.15109 -0.17756 200 ft 1 kts 355°
2026-05-04 22:15 51.15113 -0.17756 200 ft 0 kts 355°
2026-05-04 22:16 51.15120 -0.17757 200 ft 3 kts 355°
2026-05-04 22:16 51.15148 -0.17760 200 ft 6 kts
2026-05-04 22:16 51.15182 -0.17688 207 ft 12 kts 76°
2026-05-04 22:17 51.15204 -0.17526 204 ft 16 kts 77°
2026-05-04 22:17 51.15241 -0.17355 209 ft 16 kts 41°